Regional Weather Roundup
Issued by NWS

Home | Current Version | Previous Version | Graphics & Text | Print | Product List | Glossary On
Versions: 1 2 3 4 5 6 7 8 9 10 11 12 13 14 15 16 17 18 19 20 21 22 23 24 25 26 27 28 29 30 31 32 33 34 35 36 37 38 39 40 41 42 43 44 45 46 47
000
ASUS45 KTFX 290510
RWRMT
MONTANA REGIONAL WEATHER ROUNDUP
NATIONAL WEATHER SERVICE GREAT FALLS MT
1100 PM MDT TUE JUL 28 2015

NOTE: "FAIR" INDICATES FEW OR NO CLOUDS BELOW 12000 FEET WITH NO
SIGNIFICANT WEATHER AND/OR OBSTRUCTIONS TO VISIBILITY.

MTZ001>007-043-290600-
WEST OF THE DIVIDE

CITY           SKY/WX    TMP DP  RH WIND       PRES   REMARKS
KALISPELL      PTCLDY    59  43  55 SE5       30.21R
MISSOULA       CLEAR     57  45  64 NW3       30.25R
BUTTE          CLEAR     49  38  65 SE7       30.34R
MULLAN PASS    CLEAR     54  33  45 W5        30.35R
DEER LODGE       N/A     48  39  71 CALM      30.33R
EUREKA           N/A     64  45  48 SE3       30.19S
HAMILTON         N/A     55  43  62 S6        30.27R
LIBBY            N/A     57  43  58 SE6       30.21S
RONAN            N/A     60  51  72 CALM      30.26S
$$

MTZ008-052>055-290600-
SOUTHWEST MONTANA

CITY           SKY/WX    TMP DP  RH WIND       PRES   REMARKS
BOZEMAN        PTCLDY    51  42  71 NE5       30.27R
DILLON         CLEAR     54  38  54 S7        30.31R
W YELLOWSTONE  CLEAR     39  37  93 CALM      30.40R
TWIN BRIDGES     N/A     53  39  59 E3        30.26R
$$

MTZ009-010-012-014-046-048-049-054-290600-
EAST SLOPES AND CENTRAL MONTANA

CITY           SKY/WX    TMP DP  RH WIND       PRES   REMARKS
CUT BANK       CLEAR     58  39  49 W15       30.16R
GREAT FALLS    CLEAR     56  38  50 W9        30.17R
MALMSTROM AFB  MOCLDY    58  40  50 SW8       30.17R
HELENA         CLEAR     63  35  35 SW7       30.23R
$$

MTZ011-013-016-021-045-047-050-051-290600-
NORTH CENTRAL MONTANA

CITY           SKY/WX    TMP DP  RH WIND       PRES   REMARKS
HAVRE          MOCLDY    58  49  72 SW10      30.07R
LEWISTOWN      CLEAR     56  41  57 SW14      30.19R
CHINOOK          N/A     57  50  77 W5        30.05S
FORT BENTON      N/A     64  39  39 W13       30.13S
$$

MTZ017>020-022>027-061-062-290600-
NORTHEAST MONTANA

CITY           SKY/WX    TMP DP  RH WIND       PRES   REMARKS
GLASGOW        PTCLDY    58  50  75 SW8       30.00R
JORDAN           N/A     58  48  69 W7        30.07R
SIDNEY         MOCLDY    54  50  87 CALM      29.95F
WOLF POINT     MOCLDY    61  51  70 W7        29.98R
MALTA            N/A     58  49  72 CALM      30.00R
PLENTYWOOD       N/A     59  52  77 W15G22    29.90R
POPLAR           N/A     61  52  72 SW9       29.97R
$$

MTZ028>42-056>058-290600-
SOUTHCENTRAL AND SOUTHEAST MONTANA

CITY           SKY/WX    TMP DP  RH WIND       PRES   REMARKS
BAKER          CLEAR     58  40  51 W12       30.08R
BILLINGS       PTCLDY    66  35  31 W16       30.20R
LIVINGSTON     CLEAR     62  34  35 SW24G32   30.25S
MILES CITY     PTCLDY    59  42  53 W9        30.08S
FORSYTH          N/A     63  41  45 SW3       30.11S
LAUREL           N/A     66  31  27 W10       30.17S
ROUNDUP          N/A     62  38  41 SW5       30.07R
$$

REGIONAL REPORTS...DAKOTAS

CITY           SKY/WX    TMP DP  RH WIND       PRES   REMARKS
WILLISTON      CLOUDY    59  51  75 W15       29.90R
MINOT          LGT RAIN  61  49  64 W37G51    29.70R
DICKINSON      PTCLDY    50  47  89 W7        29.96S
BEACH          FAIR      57  45  62 W14       30.03S
CROSBY         CLOUDY    57  57 100 W22G30    29.81S
BISMARCK       PTCLDY    62  49  62 W25G36    29.89F
GRAND FORKS    CLOUDY    64  53  67 SW26G40   29.56S
FARGO          FAIR      67  47  48 SW21G33   29.72F
BUFFALO SD       N/A     55  37  50 W14       30.04S
RAPID CITY     CLEAR     57  44  62 NW8       30.17R
$$

REGIONAL REPORTS...WYOMING/IDAHO/WASHINGTON

CITY           SKY/WX    TMP DP  RH WIND       PRES   REMARKS
GILLETTE       CLEAR     52  35  52 W10       30.23S
SHERIDAN       CLEAR     53  39  59 CALM      30.23R
BUFFALO WY     CLEAR     52  36  54 W9        30.29R
CODY           CLEAR     59  30  33 W6        30.29S
YELLOWSTONE LA   N/A     34  31  88 CALM      30.47R
IDAHO FALLS    PTCLDY    50  41  71 CALM      30.32R
SALMON         CLEAR     55  41  58 S6        30.27R
BOISE          CLEAR     68  38  33 CALM      30.20R
SPOKANE        PTCLDY    68  37  32 SW7       30.19R
$$

REGIONAL REPORTS...ALBERTA

CITY           SKY/WX    TMP DP  RH WIND       PRES   REMARKS
EDMONTON       CLEAR     59  46  63 W6        29.98R
CALGARY        MOCLDY    64  45  48 W3        30.10R
LETHBRIDGE     CLEAR     59  45  58 W14       30.10R
MEDICINE HAT   CLOUDY    63  50  63 W6        30.03R
WATERTON GATE    N/A     59  41  51 SW12        N/A
CARDSTON         N/A     59  39  47 SW8         N/A
MILK RIVER       N/A     55  43  62 W10         N/A
$$

REGIONAL REPORTS...SASKATCHEWAN

CITY           SKY/WX    TMP DP  RH WIND       PRES   REMARKS
SWIFT CURRENT  CLEAR     57  48  72 W12       29.95S
REGINA         CLOUDY    59  54  82 NW18G29   29.79R
SASKATOON      PTCLDY    57  54  88 W8        29.83R
CYPRESS HILLS    N/A     57  39  51 NW7         N/A
VAL MARIE        N/A     54  48  82 W9          N/A
ROCKGLEN         N/A     57  50  77 W10         N/A
ASSINIBOIA       N/A     57  50  77 W7          N/A
$$


USA.gov is the U.S. government's official web portal to all federal, state and local government web resources and services.